星链-30495 (STARLINK-30495 )

导读

STARLINK-30495是美国太空探索技术公司 SpaceX 星链星座的组网卫星,于2023年9月30日发射升空,属于星链互联网卫星群组。星链计划通过大规模低轨卫星组网,为全球提供高速低延迟宽带互联网服务,该卫星进一步扩充了星链星座的在轨规模,增强了星座的服务覆盖能力与网络稳定性,支撑全球天基互联网业务运行。

基本信息
目录编号:
57968
目录名称:
STARLINK-30495
国际标识:
2023-151E
轨道中心:
EARTH
卫星名称:
星链-30495
卫星全名:
星链-30495 (STARLINK-30495 )
卫星状态:
在轨 (已飞行1077 天)
发射日期:
2023-09-30 UTC
国别 :
美国 (US)
星等 :
--
该卫星已列入 空间交会检测服务 Space Conjunction Data Service (SCDS) ,当前飞行风险评估等级: 无高风险
轨道信息
数据来源 国际轨道数据
星历时间: 2026-09-11T15:19:03+0800
10小时前
查看轨道信息
半长轴: 6861.192km
偏心率: 0.0001805
轨道倾角: 43.007°
近地点辐角 274.820°
升交点赤经 7.764°
平近点角 85.244°
近地点: 481.816km
远地点: 484.294km
周期: 94.267分钟
每日圈数: 15.275783
详细信息
固有亮度:
5
最大亮度:
0.3
卫星平台:
Starlink v2.0 mini
覆盖范围:
全球
运营商:
太空探索技术公司
运营商所在国:
美国
制造商(研发单位):
太空探索技术公司
制造商所在国:
美国
使用方式:
暂无
卫星简介
星链(Starlink)计划是由太空探索技术公司(SpaceX)提出的一个巨型低轨卫星互联网星座项目,计划在2019年至2024年间在太空搭建由约1.2万颗卫星组成的“星链”网络,其中1584颗将部署在地球上空550千米处的近地轨道,并从2020年开始工作。该卫星仍在工作。
2D轨道图
3D轨道图
轨道高度分析图
轨道倾角分析图
轨道综合分析图
查看轨道综合分析图
交会数据列表
事件ID 空间交会对象 最接近时刻(TCA) 交会距离 交会风险概率(CRP) 交会风险指数(CRI) 操作
CDM_260914-060405-796806-745421
2026-09-14T
06:04:29+0000
1.083 km
极远距离
1.501521E-5 中风险 0.59
CDM_260912-032705-796806-379321
2026-09-12T
03:27:21+0000
1.174 km
极远距离
8.653442E-6 低风险 0.54
CDM_260913-091105-796806-366121
2026-09-13T
09:11:20+0000
1.125 km
极远距离
5.551681E-6 低风险 0.5
CDM_260912-120505-796806-379321
2026-09-12T
12:05:11+0000
1.918 km
极远距离
1.889066E-6 低风险 0.41
CDM_260911-025005-796806-308921
2026-09-11T
02:50:13+0000
2.780 km
极远距离
1.26678E-6 低风险 0.37
CDM_260913-113205-796806-366121
2026-09-13T
11:32:33+0000
1.898 km
极远距离
1.152588E-6 低风险 0.36
CDM_260912-015305-796806-379321
2026-09-12T
01:53:11+0000
2.784 km
极远距离
9.17933E-7 极低风险 0.34
CDM_260913-073705-796806-366121
2026-09-13T
07:37:10+0000
2.636 km
极远距离
6.17902E-7 极低风险 0.31
CDM_260913-130605-796806-366121
2026-09-13T
13:06:42+0000
2.737 km
极远距离
5.88391E-7 极低风险 0.3
与全量物体交会距离演化趋势
与全量物体交会风险概率演化趋势